Starlink 31940

operational
NORAD ID: 59873 Int'l Des: 2024-098 Owner: SPXS Country: US Constellation: starlink
LEOCIRCULAR

Starlink 31940について

説明を読み込み中...

リアルタイム位置

3D地球を読み込み中...

次回通過

高度履歴

Altitude vs Time

uPlot chart will show altitude changes over time

軌道要素

1 59873U 24098R 25302.25927194 .00004057 00000-0 15672-3 0 9996
2 59873 43.0027 292.6273 0001477 276.2730 83.7953 15.27613602 81835
Epoch: Oct 29, 2025 • Age: 47 hours

現在のステータス

高度 483.4 km
速度 7.63 km/s
衛星直下点 -7.05°S, 155.39°E
打ち上げ日 May 24, 2024
運用期間 1.4 years
タイプ internet

技術仕様

分類 Payload
質量 730.00 kg
乾燥質量 700.00 kg
総質量 730.00 kg
長さ 0.30 m
直径 4.10 m
スパン 29.00 m
形状 Box + pan
製造者 SPXS
バスタイプ Starlink V2M
フェーズステータス In Orbit
所有者/国 SPXS/US

大規模コンステレーション

Loading constellations...